Location: Saalfelden+am+Steinernen+Meer
(47.4274°N, 12.8411°E)
Time: 10:14:11
(UTC+02:00)

Amateur Radio Satellites - All Passes

Search period start: 22 September 2017 09:44
Search period end: 23 September 2017 09:44
Location: Saalfelden+am+Steinernen+Meer, 47.4274°N, 12.8411°E

Satellite Date Start Highest point End Downlink Frequencies (MHz)
Time Altitude Azimuth
TIGRISAT 22 Sep 09:46:15 09:50:26 50° 71° (ENE) 09:54:45 435.000
FO-29 22 Sep 10:00:59 10:06:27 45° 261° (W) 10:11:32 435.910
HO-68 22 Sep 10:16:44 10:22:43 30° 304° (NW) 10:28:43 435.675
XW-2A 22 Sep 10:26:46 10:27:13 10° 299° (WNW) 10:27:39 145.665 - 145.685
AO-73 22 Sep 10:29:43 10:33:55 37° 292° (WNW) 10:38:07 145.935
Oscar 11 22 Sep 10:31:02 10:35:13 46° 289° (WNW) 10:39:22 .
ZACube-1 22 Sep 10:31:27 10:35:33 32° 293° (WNW) 10:39:37 437.345
SEEDS 22 Sep 10:33:54 10:34:31 10° 303° (WNW) 10:35:07 437.485
EO-88 22 Sep 10:35:30 10:38:41 27° 95° (E) 10:41:50 145.990 - 145.960
POLYITAN 1 22 Sep 10:37:01 10:38:28 12° 57° (ENE) 10:39:56 437.675
EO-79 22 Sep 10:41:25 10:43:17 13° 58° (ENE) 10:45:08 145.935-145.965
AIST 2D 22 Sep 10:41:32 10:44:20 22° 67° (ENE) 10:47:09 435.315
QB50P2 22 Sep 10:53:10 10:56:01 18° 62° (ENE) 10:58:53 145.880/145.840
PRISM 22 Sep 10:55:41 10:59:39 48° 260° (W) 11:03:38 437.425
UNISAT 6 22 Sep 10:59:12 11:02:58 28° 266° (W) 11:06:50 437.425
AAUSAT CUBESAT 2 22 Sep 11:02:11 11:03:01 11° 302° (WNW) 11:03:52 437.432
Max Valier Satellite 22 Sep 11:03:43 11:07:29 81° 103° (ESE) 11:11:13 145.860
DELFI C3 22 Sep 11:10:29 11:14:23 66° 286° (WNW) 11:18:15 145.870
M-CUBED/EXP-1 PRIME 22 Sep 11:11:45 11:14:14 16° 57° (ENE) 11:16:38 437.505
TIGRISAT 22 Sep 11:24:26 11:27:27 18° 270° (W) 11:30:32 435.000
RS-15 22 Sep 11:28:51 11:39:48 35° 7° (N) 11:50:23 29.354- 29.394
NANOSAT C BR1 22 Sep 11:29:30 11:33:13 32° 67° (ENE) 11:36:59 145.865
LO-87 22 Sep 11:38:12 11:40:58 20° 94° (E) 11:43:43 145.935 - 145.965
O/OREOS (USA 219) 22 Sep 11:40:11 11:43:52 23° 51° (NE) 11:47:33 437.305
DUCHIFAT 1 22 Sep 11:58:35 12:02:39 55° 72° (ENE) 12:06:46 145.980
EO-88 22 Sep 12:09:15 12:12:15 24° 293° (WNW) 12:15:13 145.990 - 145.960
POLYITAN 1 22 Sep 12:09:22 12:13:34 90° 329° (NNW) 12:17:50 437.675
Oscar 19 22 Sep 12:13:06 12:16:26 17° 57° (ENE) 12:19:46 437.125/150
EO-79 22 Sep 12:14:13 12:18:25 81° 256° (WSW) 12:22:40 145.935-145.965
AIST 2D 22 Sep 12:14:19 12:17:25 27° 265° (W) 12:20:31 435.315
ESTCUBE 1 22 Sep 12:21:38 12:25:57 43° 98° (E) 12:30:13 437.505/2401.250
YUBILEINY 22 Sep 12:24:02 12:32:05 45° 87° (E) 12:40:09 435.215
QB50P2 22 Sep 12:27:18 12:31:25 53° 260° (W) 12:35:35 145.880/145.840
AO-7 22 Sep 12:28:43 12:31:25 12° 31° (NNE) 12:34:07 .
Max Valier Satellite 22 Sep 12:40:03 12:40:42 10° 301° (WNW) 12:41:21 145.860
BUGSAT 1 22 Sep 12:41:25 12:45:14 44° 70° (ENE) 12:49:07 437.445
M-CUBED/EXP-1 PRIME 22 Sep 12:44:00 12:48:17 67° 252° (WSW) 12:52:17 437.505
VELOX 1 22 Sep 12:59:08 13:02:30 21° 93° (E) 13:05:50 145.980
NANOSAT C BR1 22 Sep 13:05:23 13:08:56 27° 265° (W) 13:12:33 145.865
LO-87 22 Sep 13:11:14 13:14:26 30° 291° (WNW) 13:17:37 145.935 - 145.965
SPROUT 22 Sep 13:11:40 13:15:41 37° 98° (E) 13:19:40 437.525
O/OREOS (USA 219) 22 Sep 13:19:06 13:23:35 52° 250° (WSW) 13:28:02 437.305
Gurwin Techsat 1B 22 Sep 13:21:03 13:26:01 42° 67° (ENE) 13:31:00 435.225
50 SAT 22 Sep 13:26:24 13:27:01 10° 90° (E) 13:27:39 437.505
DUCHIFAT 1 22 Sep 13:36:09 13:38:40 16° 270° (W) 13:41:13 145.980
RS-15 22 Sep 13:43:29 13:55:30 58° 39° (NE) 14:06:51 29.354- 29.394
Oscar 19 22 Sep 13:49:54 13:55:07 81° 255° (WSW) 14:00:22 437.125/150
ESTCUBE 1 22 Sep 13:58:57 14:02:30 23° 297° (WNW) 14:06:03 437.505/2401.250
UKube-1 22 Sep 14:10:28 14:13:42 21° 93° (E) 14:16:56 .
DX 1 22 Sep 14:13:15 14:17:11 32° 97° (E) 14:21:04 434.975-435.025
AO-7 22 Sep 14:14:26 14:21:52 38° 55° (NE) 14:29:17 .
PCSat 22 Sep 14:15:39 14:17:45 12° 102° (ESE) 14:19:51 145.827
BUGSAT 1 22 Sep 14:18:02 14:20:49 18° 268° (W) 14:23:39 437.445
YUBILEINY 22 Sep 14:20:33 14:28:51 47° 289° (WNW) 14:37:13 435.215
VELOX 1 22 Sep 14:34:58 14:39:08 44° 291° (WNW) 14:43:18 145.980
NO-84 22 Sep 14:35:36 14:39:18 58° 142° (SE) 14:42:42 435.350 FM
SPROUT 22 Sep 14:47:56 14:51:23 24° 295° (WNW) 14:54:51 437.525
ITAMSAT 1 22 Sep 14:51:47 14:56:17 31° 64° (ENE) 15:00:49 435.822/435.867
50 SAT 22 Sep 14:56:37 14:59:50 51° 287° (WNW) 15:03:03 437.505
Gurwin Techsat 1B 22 Sep 15:01:26 15:06:04 30° 265° (W) 15:10:45 435.225
MOZHAYETS 4 22 Sep 15:08:54 15:10:37 12° 87° (E) 15:12:19
SO-50 22 Sep 15:14:07 15:18:31 62° 124° (SE) 15:23:00 436.795
ITUPSAT 1 22 Sep 15:21:11 15:24:06 16° 90° (E) 15:26:58 437.325
Oscar 19 22 Sep 15:33:31 15:35:15 12° 274° (W) 15:36:59 437.125/150
UKube-1 22 Sep 15:45:50 15:49:56 43° 291° (WNW) 15:54:00 .
DX 1 22 Sep 15:49:34 15:53:16 28° 295° (WNW) 15:56:59 434.975-435.025
PCSat 22 Sep 15:54:49 16:00:13 77° 121° (ESE) 16:05:40 145.827
RS-15 22 Sep 15:56:34 16:08:05 57° 246° (WSW) 16:19:00 29.354- 29.394
BEESAT 22 Sep 15:57:57 16:02:21 34° 97° (E) 16:06:41 436.000
AO-7 22 Sep 16:06:03 16:14:17 62° 256° (WSW) 16:22:33 .
NO-84 22 Sep 16:13:35 16:16:50 32° 340° (NNW) 16:19:51 435.350 FM
YUBILEINY 22 Sep 16:25:49 16:28:27 11° 316° (NW) 16:31:05 435.215
ITAMSAT 1 22 Sep 16:30:48 16:35:39 40° 262° (W) 16:40:31 435.822/435.867
CUTE-I 22 Sep 16:32:13 16:33:15 11° 50° (NE) 16:34:16 437.470
MOZHAYETS 4 22 Sep 16:43:43 16:48:25 86° 283° (WNW) 16:53:02
SO-50 22 Sep 16:55:38 16:59:21 25° 324° (NW) 17:03:07 436.795
ITUPSAT 1 22 Sep 16:57:36 17:02:25 70° 288° (WNW) 17:07:11 437.325
CUBESAT XI-V 22 Sep 17:05:52 17:10:12 37° 97° (E) 17:14:28 437.345
XW-2C 22 Sep 17:06:49 17:08:55 14° 62° (ENE) 17:11:01 145.795 - 145.815
NUDT-PHONESAT 22 Sep 17:16:00 17:17:42 13° 61° (ENE) 17:19:24 437.300
HO-68 22 Sep 17:16:01 17:20:24 18° 47° (NE) 17:24:47 435.675
KKS-1 22 Sep 17:16:24 17:19:21 17° 91° (E) 17:22:19 437.445
LilacSat-2 22 Sep 17:16:24 17:19:09 19° 64° (ENE) 17:21:55 437.200
DOVE 4 22 Sep 17:21:05 17:25:28 69° 75° (ENE) 17:29:42 437.250
BEESAT 22 Sep 17:35:49 17:40:03 32° 295° (WNW) 17:44:17 436.000
PCSat 22 Sep 17:39:46 17:44:12 25° 322° (NW) 17:48:40 145.827
KAITUO 1B 22 Sep 17:40:22 17:43:25 23° 66° (ENE) 17:46:28 145.475/437.950
STARS 22 Sep 17:45:37 17:48:05 15° 90° (E) 17:50:32 437.465
NO-84 22 Sep 17:52:18 17:54:54 21° 1° (N) 17:57:20 435.350 FM
XW-2D 22 Sep 18:05:16 18:09:02 59° 74° (ENE) 18:12:51 145.860 - 145.880
AO-7 22 Sep 18:05:37 18:08:47 12° 277° (W) 18:11:58 .
CUTE-I 22 Sep 18:07:01 18:12:13 58° 70° (ENE) 18:17:25 437.470
RS-15 22 Sep 18:13:25 18:17:26 12° 269° (W) 18:21:24 29.354- 29.394
SEEDS 22 Sep 18:16:48 18:18:39 13° 59° (ENE) 18:20:31 437.485
XW-2B 22 Sep 18:17:30 18:21:21 79° 76° (ENE) 18:25:13 145.730 - 145.750
XW-2F 22 Sep 18:18:46 18:22:36 78° 75° (ENE) 18:26:28 145.980 - 146.000
MOZHAYETS 4 22 Sep 18:22:48 18:24:50 13° 303° (WNW) 18:26:50
ITUPSAT 1 22 Sep 18:37:57 18:39:21 11° 306° (NW) 18:40:47 437.325
XW-2C 22 Sep 18:38:51 18:42:39 58° 260° (W) 18:46:28 145.795 - 145.815
CUTE 1.7 + AOD 2 22 Sep 18:39:33 18:43:19 31° 67° (ENE) 18:47:05 437.475
SO-50 22 Sep 18:41:12 18:41:25 10° 348° (NNW) 18:41:38 436.795
CUBESAT XI-V 22 Sep 18:43:29 18:47:25 28° 295° (WNW) 18:51:18 437.345
AAUSAT CUBESAT 2 22 Sep 18:44:46 18:46:04 11° 58° (ENE) 18:47:21 437.432
NUDT-PHONESAT 22 Sep 18:47:21 18:51:05 63° 259° (W) 18:54:50 437.300
LilacSat-2 22 Sep 18:49:29 18:53:09 41° 262° (W) 18:56:52 437.200
KKS-1 22 Sep 18:51:54 18:56:15 55° 289° (WNW) 19:00:35 437.445
CUBEBUG 2 22 Sep 18:53:16 18:56:46 25° 65° (ENE) 19:00:21 437.445
HO-68 22 Sep 18:59:51 19:06:55 69° 68° (ENE) 19:14:03 435.675
DOVE 4 22 Sep 19:01:34 19:03:37 13° 271° (W) 19:05:38 437.250
UWE-3 22 Sep 19:03:47 19:06:57 20° 62° (ENE) 19:10:11 435.000/436.395/437.385
KAITUO 1B 22 Sep 19:13:53 19:17:16 30° 264° (W) 19:20:41 145.475/437.950
STARS 22 Sep 19:20:29 19:24:52 65° 287° (WNW) 19:29:13 437.465
XW-2A 22 Sep 19:25:31 19:28:39 36° 71° (ENE) 19:31:50 145.665 - 145.685
PCSat 22 Sep 19:28:55 19:29:40 10° 347° (NNW) 19:30:25 145.827
NO-84 22 Sep 19:29:56 19:32:55 37° 23° (NNE) 19:35:41 435.350 FM
BEESAT 3 22 Sep 19:33:57 19:35:26 12° 109° (ESE) 19:36:55 437.485
STRAND 1 22 Sep 19:36:38 19:40:20 20° 91° (E) 19:44:01 437.568
XW-2D 22 Sep 19:41:53 19:43:36 13° 271° (W) 19:45:19 145.860 - 145.880
CUTE-I 22 Sep 19:48:35 19:52:38 22° 268° (W) 19:56:42 437.470
SEEDS 22 Sep 19:49:29 19:53:43 82° 255° (WSW) 19:58:00 437.485
AO-73 22 Sep 19:52:04 19:55:52 30° 66° (ENE) 19:59:44 145.935
Oscar 11 22 Sep 19:53:22 19:56:48 23° 64° (ENE) 20:00:15 .
ZACube-1 22 Sep 19:53:50 19:57:45 34° 68° (ENE) 20:01:48 437.345
CUTE 1.7 + AOD 2 22 Sep 20:15:23 20:19:07 29° 265° (W) 20:22:53 437.475
AAUSAT CUBESAT 2 22 Sep 20:16:40 20:20:51 89° 262° (W) 20:25:02 437.432
SO-50 22 Sep 20:23:20 20:24:03 10° 13° (NNE) 20:24:45 436.795
DELFI C3 22 Sep 20:26:34 20:28:01 12° 60° (ENE) 20:29:28 145.870
CUBEBUG 2 22 Sep 20:29:18 20:33:14 36° 264° (W) 20:37:17 437.445
UWE-3 22 Sep 20:38:54 20:43:03 48° 261° (W) 20:47:22 435.000/436.395/437.385
AO-85 22 Sep 20:41:37 20:44:24 19° 114° (ESE) 20:47:13 145.980
HO-68 22 Sep 20:49:25 20:55:13 26° 268° (W) 21:01:06 435.675
Tancredo 1 22 Sep 20:55:20 20:57:54 41° 148° (SSE) 21:00:29 437.200
XW-2A 22 Sep 20:59:22 21:01:31 16° 268° (W) 21:03:42 145.665 - 145.685
FO-29 22 Sep 21:06:06 21:09:42 18° 91° (E) 21:13:29 435.910
NO-84 22 Sep 21:07:29 21:10:12 31° 223° (SW) 21:12:48 435.350 FM
BEESAT 3 22 Sep 21:08:21 21:12:22 84° 307° (NW) 21:16:27 437.485
BEESAT 2 22 Sep 21:12:40 21:16:23 37° 119° (ESE) 21:20:08 435.950
PCSat 22 Sep 21:14:35 21:15:48 11° 15° (NNE) 21:17:01 145.827
STRAND 1 22 Sep 21:14:51 21:19:56 62° 289° (WNW) 21:25:00 437.568
EO-88 22 Sep 21:16:24 21:19:09 20° 66° (ENE) 21:21:56 145.990 - 145.960
nSIGHT-1 22 Sep 21:26:22 21:28:46 19° 138° (SE) 21:31:11 .
AO-73 22 Sep 21:28:11 21:32:02 31° 265° (W) 21:36:00 145.935
Oscar 11 22 Sep 21:28:36 21:32:42 41° 262° (W) 21:36:51 .
ZACube-1 22 Sep 21:30:24 21:34:05 27° 266° (W) 21:37:53 437.345
Max Valier Satellite 22 Sep 21:45:08 21:48:45 55° 73° (ENE) 21:52:25 145.860
DELFI C3 22 Sep 21:58:15 22:02:12 77° 257° (WSW) 22:06:10 145.870
SO-50 22 Sep 22:02:12 22:06:04 26° 37° (NE) 22:09:57 436.795
LO-87 22 Sep 22:17:59 22:19:59 15° 63° (ENE) 22:22:01 145.935 - 145.965
ISS 22 Sep 22:19:37 22:22:46 47° 148° (SSE) 22:25:58 437.550
AO-85 22 Sep 22:20:40 22:24:26 48° 313° (NW) 22:28:20 145.980
YUBILEINY 22 Sep 22:29:44 22:36:52 27° 61° (ENE) 22:43:58 435.215
Tancredo 1 22 Sep 22:29:51 22:32:27 41° 346° (NNW) 22:35:02 437.200
PRISM 22 Sep 22:34:21 22:37:05 17° 92° (E) 22:39:47 437.425
UNISAT 6 22 Sep 22:46:27 22:50:58 47° 99° (E) 22:55:30 437.425
BEESAT 3 22 Sep 22:47:55 22:50:33 17° 328° (NNW) 22:53:12 437.485
EO-88 22 Sep 22:49:17 22:52:38 33° 263° (W) 22:56:00 145.990 - 145.960
FO-29 22 Sep 22:49:57 22:55:18 73° 288° (WNW) 23:01:11 435.910
BEESAT 2 22 Sep 22:50:35 22:54:10 30° 318° (NW) 22:57:49 435.950
PCSat 22 Sep 22:56:34 23:01:10 27° 39° (NE) 23:05:45 145.827
STRAND 1 22 Sep 22:56:52 22:58:07 11° 308° (NW) 22:59:22 437.568
nSIGHT-1 22 Sep 23:01:33 23:04:48 82° 341° (NNW) 23:08:03 .
TIGRISAT 22 Sep 23:10:28 23:15:08 74° 102° (ESE) 23:19:49 435.000
Max Valier Satellite 22 Sep 23:21:17 23:22:56 13° 271° (W) 23:24:35 145.860
ESTCUBE 1 22 Sep 23:23:49 23:28:16 58° 72° (ENE) 23:32:44 437.505/2401.250
AIST 2D 22 Sep 23:36:17 23:38:40 17° 92° (E) 23:41:01 435.315
SO-50 22 Sep 23:42:20 23:46:51 60° 237° (WSW) 23:51:25 436.795
LO-87 22 Sep 23:49:40 23:53:03 45° 261° (W) 23:56:29 145.935 - 145.965
POLYITAN 1 22 Sep 23:52:43 23:54:26 12° 88° (E) 23:56:08 437.675
ISS 22 Sep 23:56:06 23:59:18 47° 347° (NNW) 00:02:30 437.550
EO-79 22 Sep 23:57:02 23:59:09 13° 89° (E) 00:01:16 145.935-145.965
VELOX 1 22 Sep 23:59:08 00:02:54 28° 66° (ENE) 00:06:41 145.980
AO-85 23 Sep 00:04:17 00:05:50 12° 336° (NNW) 00:07:24 145.980
Tancredo 1 23 Sep 00:04:50 00:07:21 32° 6° (N) 00:09:51 437.200
SPROUT 23 Sep 00:07:43 00:11:42 42° 70° (ENE) 00:15:44 437.525
PRISM 23 Sep 00:08:41 00:12:36 47° 289° (WNW) 00:16:29 437.425
QB50P2 23 Sep 00:09:21 00:12:31 20° 92° (E) 00:15:39 145.880/145.840
UNISAT 6 23 Sep 00:23:44 00:27:24 23° 297° (WNW) 00:31:06 437.425
YUBILEINY 23 Sep 00:25:58 00:34:43 80° 264° (W) 00:43:27 435.215
FO-29 23 Sep 00:37:19 00:39:38 13° 306° (NW) 00:42:01 435.910
nSIGHT-1 23 Sep 00:38:19 00:41:23 37° 356° (N) 00:44:28 .
PCSat 23 Sep 00:39:39 00:45:04 68° 241° (WSW) 00:50:25 145.827
NANOSAT C BR1 23 Sep 00:45:32 00:49:30 37° 97° (E) 00:53:27 145.865
TIGRISAT 23 Sep 00:48:26 00:51:17 16° 300° (WNW) 00:54:07 435.000
ESTCUBE 1 23 Sep 01:02:29 01:05:26 17° 270° (W) 01:08:25 437.505/2401.250
UKube-1 23 Sep 01:07:41 01:11:18 27° 65° (ENE) 01:14:55 .
AIST 2D 23 Sep 01:08:43 01:11:59 35° 289° (WNW) 01:15:12 435.315
DX 1 23 Sep 01:11:30 01:15:36 43° 69° (ENE) 01:19:42 434.975-435.025
DUCHIFAT 1 23 Sep 01:14:32 01:18:47 66° 103° (ESE) 01:23:00 145.980
POLYITAN 1 23 Sep 01:26:25 01:30:43 75° 287° (WNW) 01:35:00 437.675
50 SAT 23 Sep 01:28:52 01:32:11 83° 74° (ENE) 01:35:30 437.505
EO-79 23 Sep 01:31:06 01:35:22 67° 287° (WNW) 01:39:36 145.935-145.965
ISS 23 Sep 01:33:02 01:36:11 39° 7° (N) 01:39:18 437.550
VELOX 1 23 Sep 01:35:18 01:39:16 33° 263° (W) 01:43:16 145.980
Gurwin Techsat 1B 23 Sep 01:35:48 01:37:53 12° 86° (E) 01:39:57 435.225
Tancredo 1 23 Sep 01:39:22 01:42:04 87° 205° (SSW) 01:44:46 437.200
QB50P2 23 Sep 01:44:25 01:48:31 45° 290° (WNW) 01:52:35 145.880/145.840
SPROUT 23 Sep 01:44:37 01:47:48 20° 268° (W) 01:50:59 437.525
M-CUBED/EXP-1 PRIME 23 Sep 01:53:55 01:57:09 43° 105° (ESE) 02:00:16 437.505
BUGSAT 1 23 Sep 01:54:39 01:58:44 49° 100° (E) 02:02:50 437.445
O/OREOS (USA 219) 23 Sep 01:58:21 02:00:00 12° 97° (E) 02:01:40 437.305
Oscar 19 23 Sep 01:58:36 02:03:01 28° 94° (E) 02:07:23 437.125/150
MOZHAYETS 4 23 Sep 02:13:11 02:16:18 18° 60° (ENE) 02:19:25
nSIGHT-1 23 Sep 02:14:54 02:18:06 53° 16° (NNE) 02:21:18 .
NANOSAT C BR1 23 Sep 02:21:34 02:25:03 25° 295° (WNW) 02:28:30 145.865
YUBILEINY 23 Sep 02:24:42 02:30:04 18° 286° (WNW) 02:35:27 435.215
PCSat 23 Sep 02:26:26 02:27:25 10° 259° (W) 02:28:25 145.827
ITUPSAT 1 23 Sep 02:30:31 02:34:30 27° 63° (ENE) 02:38:31 437.325
UKube-1 23 Sep 02:43:18 02:47:12 34° 263° (W) 02:51:09 .
DX 1 23 Sep 02:48:39 02:51:58 21° 267° (W) 02:55:17 434.975-435.025
DUCHIFAT 1 23 Sep 02:51:27 02:53:57 15° 300° (WNW) 02:56:26 145.980
POLYITAN 1 23 Sep 03:05:30 03:05:43 10° 304° (NW) 03:05:56 437.675
BEESAT 23 Sep 03:07:08 03:11:47 57° 71° (ENE) 03:16:29 436.000
ISS 23 Sep 03:09:34 03:12:52 82° 206° (SSW) 03:16:09 437.550
Gurwin Techsat 1B 23 Sep 03:13:17 03:18:39 83° 104° (ESE) 03:23:58 435.225
Tancredo 1 23 Sep 03:14:51 03:16:13 13° 223° (SW) 03:17:35 437.200
AO-85 23 Sep 03:28:31 03:30:37 13° 27° (NNE) 03:32:46 145.980
M-CUBED/EXP-1 PRIME 23 Sep 03:29:23 03:31:16 14° 304° (NW) 03:33:07 437.505
BUGSAT 1 23 Sep 03:30:47 03:33:46 19° 297° (WNW) 03:36:45 437.445
O/OREOS (USA 219) 23 Sep 03:34:11 03:38:42 83° 297° (WNW) 03:43:16 437.305
Oscar 19 23 Sep 03:37:36 03:42:31 44° 292° (WNW) 03:47:22 437.125/150
BEESAT 3 23 Sep 03:45:04 03:48:25 24° 39° (NE) 03:51:43 437.485
MOZHAYETS 4 23 Sep 03:48:24 03:52:58 63° 258° (WSW) 03:57:36
BEESAT 2 23 Sep 03:50:15 03:52:32 14° 29° (NNE) 03:54:49 435.950
nSIGHT-1 23 Sep 03:51:20 03:54:23 37° 215° (SW) 03:57:25 .
AO-7 23 Sep 04:03:59 04:11:36 38° 97° (E) 04:19:09 .
ITUPSAT 1 23 Sep 04:07:38 04:12:08 41° 261° (W) 04:16:42 437.325
CUBESAT XI-V 23 Sep 04:11:47 04:16:22 53° 71° (ENE) 04:20:57 437.345
RS-15 23 Sep 04:14:55 04:22:59 21° 97° (E) 04:31:02 29.354- 29.394
KKS-1 23 Sep 04:17:13 04:20:47 25° 64° (ENE) 04:24:22 437.445
ITAMSAT 1 23 Sep 04:39:46 04:44:54 55° 101° (E) 04:50:00 435.822/435.867
STARS 23 Sep 04:44:57 04:48:10 20° 62° (ENE) 04:51:23 437.465
BEESAT 23 Sep 04:46:34 04:49:55 19° 269° (W) 04:53:18 436.000
ISS 23 Sep 04:46:52 04:48:55 16° 224° (SW) 04:50:58 437.550
Gurwin Techsat 1B 23 Sep 04:54:32 04:57:56 18° 304° (WNW) 05:01:20 435.225
AO-85 23 Sep 05:07:42 05:11:56 51° 48° (NE) 05:16:30 145.980
O/OREOS (USA 219) 23 Sep 05:16:26 05:18:52 14° 316° (NW) 05:21:19 437.305
DOVE 4 23 Sep 05:17:35 05:19:36 13° 89° (E) 05:21:39 437.250
BEESAT 3 23 Sep 05:22:20 05:26:12 49° 239° (WSW) 05:29:59 437.485
BEESAT 2 23 Sep 05:27:00 05:31:04 65° 51° (NE) 05:35:03 435.950
CUBESAT XI-V 23 Sep 05:50:37 05:54:02 20° 269° (W) 05:57:28 437.345
KKS-1 23 Sep 05:53:01 05:57:10 39° 262° (W) 06:01:20 437.445
AO-7 23 Sep 05:56:37 06:04:41 57° 298° (WNW) 06:12:42 .
XW-2C 23 Sep 06:09:53 06:11:23 12° 89° (E) 06:12:52 145.795 - 145.815
ITAMSAT 1 23 Sep 06:19:54 06:24:01 24° 300° (WNW) 06:28:07 435.822/435.867
STARS 23 Sep 06:19:59 06:24:11 48° 260° (W) 06:28:26 437.465
LilacSat-2 23 Sep 06:20:07 06:22:40 17° 91° (E) 06:25:10 437.200
RS-15 23 Sep 06:21:04 06:33:16 73° 120° (ESE) 06:45:29 29.354- 29.394
CUTE-I 23 Sep 06:21:41 06:25:12 18° 90° (E) 06:28:43 437.470
KAITUO 1B 23 Sep 06:41:51 06:44:40 20° 93° (E) 06:47:28 145.475/437.950
AO-85 23 Sep 06:48:31 06:52:09 24° 244° (WSW) 06:55:58 145.980
DOVE 4 23 Sep 06:53:34 06:57:44 66° 287° (WNW) 07:02:03 437.250
STRAND 1 23 Sep 06:55:17 06:59:58 38° 66° (ENE) 07:04:41 437.568
BEESAT 2 23 Sep 07:05:55 07:08:19 15° 249° (WSW) 07:10:41 435.950
XW-2D 23 Sep 07:08:31 07:12:18 55° 100° (E) 07:16:01 145.860 - 145.880
XW-2B 23 Sep 07:20:49 07:24:39 74° 102° (ESE) 07:28:26 145.730 - 145.750
XW-2F 23 Sep 07:21:34 07:25:24 73° 102° (ESE) 07:29:09 145.980 - 146.000
FO-29 23 Sep 07:25:22 07:27:01 11° 53° (NE) 07:28:40 435.910
SEEDS 23 Sep 07:31:30 07:33:34 13° 88° (E) 07:35:39 437.485
XW-2C 23 Sep 07:42:10 07:45:59 61° 286° (WNW) 07:49:42 145.795 - 145.815
NUDT-PHONESAT 23 Sep 07:48:01 07:51:45 72° 285° (WNW) 07:55:27 437.300
AO-7 23 Sep 07:50:53 07:55:46 17° 321° (NW) 08:00:39 .
LilacSat-2 23 Sep 07:53:29 07:57:09 42° 289° (WNW) 08:00:46 437.200
CUTE 1.7 + AOD 2 23 Sep 07:56:20 08:00:18 37° 97° (E) 08:04:14 437.475
AAUSAT CUBESAT 2 23 Sep 07:57:35 07:58:55 11° 88° (E) 08:00:13 437.432
CUTE-I 23 Sep 08:00:28 08:05:47 72° 289° (WNW) 08:11:06 437.470
HO-68 23 Sep 08:11:28 08:18:30 54° 101° (E) 08:25:31 435.675
KAITUO 1B 23 Sep 08:15:21 08:18:45 34° 291° (WNW) 08:22:08 145.475/437.950
CUBEBUG 2 23 Sep 08:16:00 08:20:22 37° 97° (E) 08:24:47 437.445
XW-2A 23 Sep 08:16:36 08:19:28 24° 95° (E) 08:22:18 145.665 - 145.685
UWE-3 23 Sep 08:25:01 08:29:02 28° 94° (E) 08:33:04 435.000/436.395/437.385
STRAND 1 23 Sep 08:34:43 08:39:12 31° 265° (W) 08:43:45 437.568
RS-15 23 Sep 08:34:49 08:46:42 50° 327° (NNW) 08:58:29 29.354- 29.394
TIGRISAT 23 Sep 08:38:35 08:40:23 12° 57° (ENE) 08:42:12 435.000
XW-2D 23 Sep 08:43:55 08:46:03 14° 298° (WNW) 08:48:09 145.860 - 145.880
XW-2B 23 Sep 08:56:59 08:58:16 11° 300° (WNW) 08:59:32 145.730 - 145.750
XW-2F 23 Sep 08:57:37 08:58:57 12° 300° (WNW) 09:00:17 145.980 - 146.000
SEEDS 23 Sep 09:05:32 09:09:42 64° 286° (WNW) 09:13:49 437.485
FO-29 23 Sep 09:05:41 09:11:17 68° 72° (ENE) 09:16:30 435.910
AO-73 23 Sep 09:12:05 09:16:26 41° 97° (E) 09:20:44 145.935
Oscar 11 23 Sep 09:12:29 09:16:16 28° 95° (E) 09:20:00 .
ZACube-1 23 Sep 09:14:20 09:18:48 48° 99° (E) 09:23:13 437.345
PRISM 23 Sep 09:26:31 09:29:31 20° 63° (ENE) 09:32:32 437.425
AAUSAT CUBESAT 2 23 Sep 09:30:45 09:34:52 74° 285° (WNW) 09:38:57 437.432
CUTE 1.7 + AOD 2 23 Sep 09:32:34 09:35:57 24° 295° (WNW) 09:39:19 437.475
DELFI C3 23 Sep 09:34:22 09:35:06 10° 88° (E) 09:35:49 145.870
